Location: Aalen
(48.8330°N, 10.1000°E)
Time: 02:41:09
(UTC+02:00)

Transit 2A - Pass Details

Date: 29 July 2021
Orbit: 594 x 964 km, 66.7° (Epoch: 27 September)

Event Time Altitude Azimuth Distance (km) Brightness Sun altitude
Rises 17:37:05 0° 318° (NW) 3,234 9.7 31.7°
Reaches altitude 10° 17:39:33 10° 310° (NW) 2,363 9.2 31.3°
Maximum altitude 17:44:28 35° 246° (WSW) 1,331 9.2 30.5°
Drops below altitude 10° 17:49:48 10° 182° (S) 2,565 8.9 29.6°
Sets 17:52:35 0° 174° (S) 3,547 9.4 29.2°
